Date,TemperatureHighF,TemperatureAvgF,TemperatureLowF,DewpointHighF,DewpointAvgF,DewpointLowF,HumidityHigh,HumidityAvg,HumidityLow,PressureMaxIn,PressureMinIn,WindSpeedMaxMPH,WindSpeedAvgMPH,GustSpeedMaxMPH,PrecipitationSumIn
2013-10-1,88,82,77,-100,-100,-100,0,0,100,29.99,29.92,7,4,12,0.00
2013-10-2,87,83,80,-100,-100,-100,0,0,100,30.00,29.93,7,5,14,0.00
2013-10-3,89,82,78,-100,-100,-100,0,0,100,30.01,29.91,7,3,11,0.00
2013-10-4,88,82,78,-100,-100,-100,0,0,100,30.01,29.94,5,3,9,0.00
2013-10-5,89,81,72,-100,-100,-100,0,0,100,29.99,29.89,6,2,10,0.00
2013-10-6,88,82,77,-100,-100,-100,0,0,100,29.93,29.83,5,2,9,0.00
2013-10-7,91,79,72,-100,-100,-100,0,0,100,29.86,29.77,13,2,27,0.06
2013-10-8,90,80,76,-100,-100,-100,0,0,100,29.90,29.81,6,2,13,0.01
2013-10-9,85,78,72,-100,-100,-100,0,0,100,29.95,29.87,9,3,11,0.00
2013-10-10,87,80,72,-100,-100,-100,0,0,100,29.97,29.90,8,5,12,0.00
2013-10-11,86,80,72,-100,-100,-100,0,0,100,29.97,29.90,7,4,13,0.00
2013-10-12,86,78,68,-100,-100,-100,0,0,100,29.99,29.91,6,2,9,0.00
2013-10-13,86,79,72,-100,-100,-100,0,0,100,30.01,29.93,8,3,12,0.00
2013-10-14,87,79,70,-100,-100,-100,0,0,100,29.98,29.87,6,3,11,0.00
2013-10-15,86,79,72,-100,-100,-100,0,0,100,29.92,29.83,7,3,11,0.00
2013-10-16,87,79,72,-100,-100,-100,0,0,100,29.92,29.85,5,2,9,0.00
2013-10-17,88,80,71,-100,-100,-100,0,0,100,29.93,29.86,5,2,10,0.00
2013-10-18,89,81,73,-100,-100,-100,0,0,100,29.95,29.87,7,2,11,0.00
2013-10-19,89,82,78,-100,-100,-100,0,0,100,29.93,29.84,5,2,10,0.00
2013-10-20,88,82,78,-100,-100,-100,0,0,100,29.93,29.84,6,2,10,0.00
2013-10-21,90,84,79,-100,-100,-100,0,0,100,29.97,29.87,5,2,9,0.00
2013-10-22,91,83,78,-100,-100,-100,0,0,100,29.93,29.80,8,3,14,0.00
2013-10-23,90,81,76,76,-60,-100,94,21,89,29.92,29.78,10,4,14,0.00
2013-10-24,81,76,71,-100,-100,-100,0,0,100,30.06,29.90,8,5,14,0.00
2013-10-25,83,78,70,-100,-100,-100,0,0,100,30.11,30.03,9,6,15,0.00
2013-10-26,84,78,71,-100,-100,-100,0,0,100,30.11,30.01,7,4,13,0.00
2013-10-27,85,74,65,-100,-100,-100,0,0,100,30.06,29.98,5,3,12,0.00
2013-10-28,85,79,75,-100,-100,-100,0,0,100,30.10,30.01,6,4,9,0.00
2013-10-29,86,80,74,-100,-100,-100,0,0,100,30.14,30.05,8,5,15,0.00
2013-10-30,86,80,77,-100,-100,-100,0,0,100,30.15,30.04,7,6,13,0.00
2013-10-31,86,80,75,-100,-100,-100,0,0,100,30.07,29.95,7,5,12,0.12